Voltar ao catálogo

STARLINK-11407

AtivoComunicaçõesVLEO
NORAD 61939·PAYLOAD·🇺🇸 United States

Lançado Nov 14, 2024 de Vandenberg Space Force Base

Loading…

Próximas Passagens (próximas 24 horas)

TLE

AtualizadoSource: CelesTrak SupGP

Época: Sep 14, 2026, 20:51 UTC

1 61939C 24209A   26257.86923611 -.00139740  00000+0 -11490-2 0  2572
2 61939  53.1574 158.4512 0001050  89.6623 275.5598 15.69823238    10

Acompanhe STARLINK-11407 em tempo real com AllMySat

Download on the App Store